| time (UTC) | temp F | wind direction | speed knots | gust knots | rain 1hr in | rain 24hr in | rain mn in | humidity % | barometer mb |
| 20260510100008 | 51 | 176 | 0.0 | 1.7 | 0.00 | 0.00 | 0.00 | 92 | 1007.8 |
| 20260510095007 | 51 | 124 | 0.9 | 1.7 | 0.00 | 0.00 | 0.00 | 92 | 1007.5 |
| 20260510094006 | 51 | 117 | 1.7 | 1.7 | 0.00 | 0.00 | 0.00 | 92 | 1007.8 |
| 20260510093005 | 51 | 237 | 0.0 | 2.6 | 0.00 | 0.00 | 0.00 | 92 | 1007.8 |
| 20260510092005 | 51 | 249 | 0.9 | 2.6 | 0.00 | 0.00 | 0.00 | 92 | 1007.8 |
| 20260510091004 | 51 | 225 | 0.9 | 1.7 | 0.00 | 0.00 | 0.00 | 92 | 1007.5 |
| 20260510090004 | 51 | 132 | 0.0 | 0.9 | 0.00 | 0.00 | 0.00 | 90 | 1007.5 |
| 20260510085003 | 52 | 120 | 0.9 | 0.9 | 0.00 | 0.00 | 0.00 | 90 | 1007.5 |
| 20260510084002 | 52 | 129 | 0.0 | 3.5 | 0.00 | 0.00 | 0.00 | 88 | 1007.1 |
| 20260510083002 | 53 | 145 | 0.0 | 4.3 | 0.00 | 0.00 | 0.00 | 88 | 1007.1 |
| 20260510082001 | 53 | 140 | 2.6 | 4.3 | 0.00 | 0.00 | 0.00 | 87 | 1007.1 |
| 20260510081000 | 53 | 225 | 0.9 | 2.6 | 0.00 | 0.00 | 0.00 | 87 | 1007.5 |
| 20260510080000 | 54 | 85 | 0.9 | 2.6 | 0.00 | 0.00 | 0.00 | 87 | 1007.5 |
| 20260510074959 | 54 | 235 | 1.7 | 2.6 | 0.00 | 0.00 | 0.00 | 86 | 1007.5 |
| 20260510073958 | 54 | 223 | 0.9 | 4.3 | 0.00 | 0.00 | 0.00 | 85 | 1007.8 |
| 20260510072957 | 54 | 183 | 1.7 | 4.3 | 0.00 | 0.00 | 0.00 | 85 | 1007.5 |
| 20260510071957 | 54 | 345 | 0.9 | 5.2 | 0.00 | 0.00 | 0.00 | 84 | 1007.1 |
| 20260510070925 | 54 | 301 | 1.7 | 5.2 | 0.00 | 0.00 | 0.00 | 84 | 1007.1 |
| 20260510065925 | 54 | 118 | 1.7 | 6.1 | 0.00 | 0.00 | 0.00 | 84 | 1007.1 |
| 20260510064924 | 54 | 193 | 0.9 | 6.1 | 0.00 | 0.00 | 0.00 | 83 | 1007.5 |
| 20260510063923 | 54 | 297 | 1.7 | 5.2 | 0.00 | 0.00 | 0.00 | 83 | 1007.5 |
| 20260510062923 | 54 | 177 | 1.7 | 5.2 | 0.00 | 0.00 | 0.00 | 82 | 1007.5 |
| 20260510061922 | 54 | 171 | 0.9 | 4.3 | 0.00 | 0.00 | 0.00 | 82 | 1007.5 |
| 20260510060921 | 54 | 215 | 1.7 | 4.3 | 0.00 | 0.00 | 0.00 | 83 | 1007.5 |
| 20260510055921 | 54 | 285 | 0.9 | 5.2 | 0.00 | 0.00 | 0.00 | 83 | 1007.1 |
| 20260510054920 | 54 | 213 | 1.7 | 5.2 | 0.00 | 0.00 | 0.00 | 82 | 1007.5 |
| 20260510053920 | 54 | 147 | 2.6 | 6.1 | 0.00 | 0.00 | 0.00 | 82 | 1007.5 |
| 20260510052919 | 54 | 157 | 0.9 | 6.1 | 0.00 | 0.00 | 0.00 | 82 | 1007.5 |
| 20260510051918 | 54 | 198 | 0.9 | 6.1 | 0.00 | 0.00 | 0.00 | 81 | 1007.1 |
| 20260510050918 | 54 | 103 | 1.7 | 6.1 | 0.00 | 0.00 | 0.00 | 81 | 1007.1 |
| 20260510045917 | 54 | 132 | 1.7 | 7.0 | 0.00 | 0.00 | 0.00 | 82 | 1007.1 |
| 20260510044916 | 54 | 135 | 2.6 | 7.0 | 0.00 | 0.00 | 0.00 | 81 | 1007.1 |
| 20260510043915 | 54 | 198 | 1.7 | 4.3 | 0.00 | 0.00 | 0.00 | 81 | 1007.1 |
| 20260510042915 | 54 | 121 | 0.9 | 3.5 | 0.00 | 0.00 | 0.00 | 81 | 1007.1 |
| 20260510041914 | 53 | 135 | 1.7 | 4.3 | 0.00 | 0.00 | 0.00 | 82 | 1007.1 |
| 20260510040913 | 53 | 134 | 0.9 | 4.3 | 0.00 | 0.00 | 0.00 | 83 | 1006.8 |
| 20260510035913 | 53 | 115 | 0.9 | 2.6 | 0.00 | 0.00 | 0.00 | 84 | 1006.8 |
| 20260510034912 | 52 | 61 | 1.7 | 2.6 | 0.00 | 0.00 | 0.00 | 85 | 1006.8 |
| 20260510033911 | 52 | 145 | 0.0 | 1.7 | 0.00 | 0.00 | 0.00 | 85 | 1007.1 |
| 20260510032910 | 52 | 281 | 0.0 | 0.9 | 0.00 | 0.00 | 0.00 | 85 | 1007.5 |
| 20260510031909 | 52 | 282 | 0.0 | 0.9 | 0.00 | 0.00 | 0.00 | 85 | 1007.5 |
| 20260510030909 | 52 | 236 | 0.9 | 0.9 | 0.00 | 0.00 | 0.00 | 85 | 1007.5 |
| 20260510025908 | 52 | 102 | 0.0 | 0.9 | 0.00 | 0.00 | 0.00 | 85 | 1007.5 |
| 20260510024908 | 52 | 282 | 0.0 | 1.7 | 0.00 | 0.00 | 0.00 | 86 | 1007.8 |
| 20260510023836 | 52 | 282 | 0.0 | 1.7 | 0.00 | 0.00 | 0.00 | 86 | 1007.5 |
| 20260510022836 | 52 | 276 | 0.9 | 1.7 | 0.00 | 0.00 | 0.00 | 84 | 1007.8 |
| 20260510021835 | 52 | 142 | 0.0 | 0.9 | 0.00 | 0.00 | 0.00 | 82 | 1007.5 |
| 20260510020834 | 52 | 141 | 0.0 | 0.9 | 0.00 | 0.00 | 0.00 | 82 | 1007.5 |
| 20260510015833 | 52 | 277 | 0.0 | 1.7 | 0.00 | 0.00 | 0.00 | 83 | 1007.8 |
| 20260510014833 | 52 | 205 | 0.0 | 1.7 | 0.00 | 0.00 | 0.00 | 84 | 1007.8 |
| 20260510013801 | 52 | 147 | 0.0 | 0.9 | 0.00 | 0.00 | 0.00 | 86 | 1007.8 |
| 20260510012800 | 52 | 139 | 0.0 | 0.9 | 0.00 | 0.00 | 0.00 | 86 | 1007.8 |
| 20260510011729 | 52 | 146 | 0.0 | 1.7 | 0.00 | 0.00 | 0.00 | 86 | 1007.8 |
| 20260510010728 | 52 | 23 | 0.0 | 2.6 | 0.00 | 0.00 | 0.00 | 86 | 1008.1 |
| 20260510005727 | 52 | 140 | 0.9 | 2.6 | 0.00 | 0.00 | 0.00 | 86 | 1007.8 |
| 20260510004727 | 52 | 186 | 0.0 | 0.9 | 0.00 | 0.00 | 0.00 | 86 | 1008.1 |
| 20260510003726 | 52 | 165 | 0.0 | 0.9 | 0.00 | 0.00 | 0.00 | 85 | 1008.1 |
| 20260510002725 | 52 | 259 | 0.0 | 0.9 | 0.00 | 0.00 | 0.00 | 85 | 1008.1 |
| 20260510001725 | 53 | 246 | 0.0 | 0.9 | 0.00 | 0.00 | 0.00 | 85 | 1008.1 |
| 20260510000724 | 53 | 260 | 0.9 | 1.7 | 0.00 | 0.00 | 0.00 | 84 | 1008.1 |
| 20260509235723 | 53 | 269 | 0.0 | 1.7 | 0.00 | 0.00 | 0.00 | 84 | 1008.1 |
| 20260509234723 | 53 | 167 | 0.0 | 1.7 | 0.00 | 0.00 | 0.00 | 83 | 1008.1 |
| 20260509233722 | 53 | 185 | 0.0 | 1.7 | 0.00 | 0.00 | 0.00 | 83 | 1008.1 |
| 20260509232722 | 53 | 184 | 0.9 | 1.7 | 0.00 | 0.00 | 0.00 | 82 | 1008.1 |
| 20260509231721 | 53 | 94 | 0.9 | 2.6 | 0.00 | 0.00 | 0.00 | 82 | 1008.1 |
| 20260509230649 | 53 | 229 | 0.0 | 7.0 | 0.00 | 0.00 | 0.00 | 81 | 1008.1 |
| 20260509225648 | 54 | 233 | 0.9 | 7.0 | 0.00 | 0.00 | 0.00 | 80 | 1008.1 |
| 20260509224648 | 54 | 42 | 0.0 | 3.5 | 0.00 | 0.00 | 0.00 | 80 | 1008.1 |
| 20260509223647 | 54 | 136 | 1.7 | 3.5 | 0.00 | 0.00 | 0.00 | 79 | 1008.1 |
| 20260509222646 | 54 | 127 | 1.7 | 3.5 | 0.00 | 0.00 | 0.00 | 77 | 1008.1 |
| 20260509221646 | 54 | 41 | 0.0 | 3.5 | 0.00 | 0.00 | 0.00 | 76 | 1008.1 |
| 20260509220645 | 54 | 139 | 0.9 | 3.5 | 0.00 | 0.00 | 0.00 | 76 | 1008.5 |
| 20260509215644 | 54 | 140 | 0.9 | 2.6 | 0.00 | 0.00 | 0.00 | 76 | 1008.5 |
| 20260509214541 | 54 | 133 | 0.9 | 2.6 | 0.00 | 0.00 | 0.00 | 76 | 1008.1 |
| 20260509213541 | 54 | 123 | 0.9 | 2.6 | 0.00 | 0.00 | 0.00 | 75 | 1008.5 |
| 20260509212509 | 54 | 150 | 0.9 | 3.5 | 0.00 | 0.00 | 0.00 | 75 | 1008.5 |
| 20260509211509 | 54 | 115 | 0.0 | 3.5 | 0.00 | 0.00 | 0.00 | 75 | 1008.5 |
| 20260509210437 | 54 | 332 | 0.9 | 6.1 | 0.00 | 0.00 | 0.00 | 74 | 1008.8 |
| 20260509205334 | 55 | 153 | 0.9 | 6.1 | 0.00 | 0.00 | 0.00 | 73 | 1008.8 |
| 20260509204333 | 55 | 215 | 0.9 | 4.3 | 0.00 | 0.00 | 0.00 | 74 | 1008.8 |
| 20260509203332 | 55 | 235 | 1.7 | 4.3 | 0.00 | 0.00 | 0.00 | 74 | 1008.8 |
| 20260509202332 | 55 | 275 | 0.9 | 4.3 | 0.00 | 0.00 | 0.00 | 76 | 1008.8 |
| 20260509201331 | 55 | 221 | 0.9 | 4.3 | 0.00 | 0.00 | 0.00 | 75 | 1008.8 |
| 20260509200330 | 55 | 227 | 1.7 | 5.2 | 0.00 | 0.00 | 0.00 | 74 | 1008.8 |
| 20260509195329 | 55 | 190 | 1.7 | 5.2 | 0.00 | 0.00 | 0.00 | 74 | 1008.8 |
| 20260509194329 | 55 | 262 | 3.5 | 6.1 | 0.00 | 0.00 | 0.00 | 74 | 1008.8 |
| 20260509193328 | 55 | 244 | 3.5 | 6.1 | 0.00 | 0.00 | 0.00 | 72 | 1009.1 |
| 20260509192327 | 56 | 263 | 1.7 | 5.2 | 0.00 | 0.00 | 0.00 | 68 | 1009.1 |
| 20260509191326 | 56 | 215 | 2.6 | 5.2 | 0.00 | 0.00 | 0.00 | 67 | 1009.1 |
| 20260509190224 | 56 | 241 | 1.7 | 3.5 | 0.00 | 0.00 | 0.00 | 67 | 1009.1 |
| 20260509185223 | 56 | 218 | 1.7 | 4.3 | 0.00 | 0.00 | 0.00 | 67 | 1009.5 |
| 20260509184223 | 57 | 21 | 0.9 | 6.1 | 0.00 | 0.00 | 0.00 | 64 | 1009.5 |
| 20260509183222 | 57 | 219 | 1.7 | 7.8 | 0.00 | 0.00 | 0.00 | 61 | 1009.5 |
| 20260509182221 | 57 | 199 | 1.7 | 7.8 | 0.00 | 0.00 | 0.00 | 59 | 1009.8 |
| 20260509181220 | 58 | 239 | 3.5 | 7.0 | 0.00 | 0.00 | 0.00 | 57 | 1009.5 |
| 20260509180220 | 58 | 120 | 1.7 | 7.8 | 0.00 | 0.00 | 0.00 | 57 | 1009.5 |
| 20260509175219 | 57 | 265 | 1.7 | 7.8 | 0.00 | 0.00 | 0.00 | 57 | 1009.8 |
| 20260509174147 | 56 | 221 | 3.5 | 7.0 | 0.00 | 0.00 | 0.00 | 56 | 1009.5 |
| 20260509173115 | 55 | 224 | 2.6 | 7.8 | 0.00 | 0.00 | 0.00 | 58 | 1009.8 |
| 20260509172044 | 55 | 237 | 2.6 | 9.6 | 0.00 | 0.00 | 0.00 | 59 | 1009.8 |
| 20260509171043 | 56 | 227 | 2.6 | 9.6 | 0.00 | 0.00 | 0.00 | 58 | 1009.8 |
| 20260509170042 | 57 | 247 | 2.6 | 7.8 | 0.00 | 0.00 | 0.00 | 58 | 1009.8 |
| 20260509164939 | 56 | 243 | 3.5 | 7.0 | 0.00 | 0.00 | 0.00 | 56 | 1010.2 |
| 20260509163938 | 56 | 249 | 2.6 | 7.0 | 0.00 | 0.00 | 0.00 | 55 | 1010.2 |
| 20260509162938 | 57 | 242 | 3.5 | 8.7 | 0.00 | 0.00 | 0.00 | 54 | 1010.2 |
| 20260509161938 | 57 | 243 | 2.6 | 8.7 | 0.00 | 0.00 | 0.00 | 52 | 1010.5 |
| 20260509160834 | 57 | 251 | 2.6 | 8.7 | 0.00 | 0.00 | 0.00 | 50 | 1010.5 |
| 20260509155834 | 57 | 258 | 3.5 | 9.6 | 0.00 | 0.00 | 0.00 | 51 | 1010.5 |
| 20260509154731 | 58 | 249 | 2.6 | 9.6 | 0.00 | 0.00 | 0.00 | 51 | 1010.8 |
| 20260509153730 | 59 | 267 | 4.3 | 7.8 | 0.00 | 0.00 | 0.00 | 48 | 1010.8 |
| 20260509152730 | 58 | 140 | 0.9 | 6.1 | 0.00 | 0.00 | 0.00 | 46 | 1011.2 |
| 20260509151729 | 58 | 248 | 3.5 | 6.1 | 0.00 | 0.00 | 0.00 | 44 | 1011.2 |
| 20260509150728 | 58 | 260 | 1.7 | 5.2 | 0.00 | 0.00 | 0.00 | 46 | 1011.2 |
| 20260509145727 | 57 | 251 | 2.6 | 5.2 | 0.00 | 0.00 | 0.00 | 47 | 1011.2 |
| 20260509144727 | 57 | 233 | 2.6 | 5.2 | 0.00 | 0.00 | 0.00 | 46 | 1011.2 |
| 20260509143726 | 57 | 248 | 2.6 | 5.2 | 0.00 | 0.00 | 0.00 | 47 | 1011.5 |
| 20260509142725 | 57 | 169 | 0.9 | 5.2 | 0.00 | 0.00 | 0.00 | 47 | 1011.5 |
| 20260509141724 | 56 | 193 | 1.7 | 6.1 | 0.00 | 0.00 | 0.00 | 49 | 1011.5 |
| 20260509140724 | 56 | 254 | 2.6 | 6.1 | 0.00 | 0.00 | 0.00 | 50 | 1011.5 |
| 20260509135723 | 55 | 260 | 2.6 | 6.1 | 0.00 | 0.00 | 0.00 | 50 | 1011.5 |
| 20260509134722 | 54 | 256 | 2.6 | 5.2 | 0.00 | 0.00 | 0.00 | 52 | 1011.5 |
| 20260509133721 | 53 | 226 | 0.9 | 6.1 | 0.00 | 0.00 | 0.00 | 58 | 1011.5 |
| 20260509132721 | 52 | 253 | 1.7 | 6.1 | 0.00 | 0.00 | 0.00 | 59 | 1011.5 |
| 20260509131720 | 52 | 258 | 2.6 | 5.2 | 0.00 | 0.00 | 0.00 | 59 | 1011.9 |
| 20260509130648 | 51 | 260 | 2.6 | 4.3 | 0.00 | 0.00 | 0.00 | 58 | 1011.9 |
| 20260509125648 | 51 | 263 | 0.9 | 3.5 | 0.00 | 0.00 | 0.00 | 59 | 1012.2 |
| 20260509124647 | 50 | 249 | 1.7 | 3.5 | 0.00 | 0.00 | 0.00 | 60 | 1012.2 |
| 20260509123615 | 49 | 286 | 0.9 | 3.5 | 0.00 | 0.00 | 0.00 | 60 | 1012.2 |
| 20260509122615 | 48 | 236 | 1.7 | 3.5 | 0.00 | 0.00 | 0.00 | 61 | 1012.2 |
| 20260509121614 | 47 | 139 | 0.9 | 2.6 | 0.00 | 0.00 | 0.00 | 62 | 1012.2 |
| 20260509120613 | 46 | 141 | 1.7 | 2.6 | 0.00 | 0.00 | 0.00 | 65 | 1012.2 |
| 20260509115613 | 45 | 281 | 0.0 | 2.6 | 0.00 | 0.00 | 0.00 | 67 | 1012.5 |
| 20260509114612 | 43 | 160 | 0.0 | 2.6 | 0.00 | 0.00 | 0.00 | 69 | 1012.5 |
| 20260509113540 | 42 | 18 | 0.9 | 0.9 | 0.00 | 0.00 | 0.00 | 71 | 1012.5 |
| 20260509112539 | 42 | 350 | 0.0 | 0.9 | 0.00 | 0.00 | 0.00 | 71 | 1012.5 |
| 20260509111539 | 42 | 44 | 0.9 | 0.9 | 0.00 | 0.00 | 0.00 | 74 | 1012.5 |
| 20260509110538 | 39 | 110 | 0.0 | 0.0 | 0.00 | 0.00 | 0.00 | 80 | 1012.5 |
| 20260509105538 | 37 | 109 | 0.0 | 0.0 | 0.00 | 0.00 | 0.00 | 84 | 1012.5 |
| 20260509104536 | 36 | 110 | 0.0 | 0.0 | 0.00 | 0.00 | 0.00 | 84 | 1012.5 |
| 20260509103434 | 35 | 110 | 0.0 | 0.9 | 0.00 | 0.00 | 0.00 | 84 | 1012.5 |
| 20260509102433 | 35 | 110 | 0.0 | 0.9 | 0.00 | 0.00 | 0.00 | 83 | 1012.5 |
| 20260509101432 | 35 | 109 | 0.9 | 0.9 | 0.00 | 0.00 | 0.00 | 83 | 1012.2 |